DL4NBA-1 Weather Reports


Display with metric or nautical units.
time (UTC)temp
F
wind
direction
speed
MPH
gust
MPH
rain 1hr
in
rain 24hr
in
rain mn
in
humidity
%
barometer
mb
20260905112905 72 217 10.0 6.0 0.00 0.00 0.00
20260905111904 70 224 9.0 8.0 0.00 0.00 0.00
20260905105909 72 232 10.0 8.0 0.00 0.00 0.00
20260905104907 70 224 11.0 7.0 0.00 0.00 0.00
20260905103910 71 217 9.0 11.0 0.00 0.00 0.00
20260905103411 70 248 13.0 12.0 0.00 0.00 0.00
20260905102910 70 232 7.0 7.0 0.00 0.00 0.00
20260905102411 70 246 11.0 10.0 0.00 0.00 0.00
20260905101910 70 235 10.0 8.0 0.00 0.00 0.00
20260905101411 70 243 9.0 8.0 0.00 0.00 0.00
20260905100411 69 278 6.0 5.0 0.00 0.00 0.00
20260905095911 69 229 8.0 7.0 0.00 0.00 0.00
20260905095413 68 255 6.0 4.0 0.00 0.00 0.00
20260905094914 67 252 8.0 6.0 0.00 0.00 0.00
20260905094415 66 250 8.0 5.0 0.00 0.00 0.00
20260905093913 66 253 9.0 7.0 0.00 0.00 0.00
20260905093414 66 301 7.0 6.0 0.00 0.00 0.00
20260905092417 67 276 8.0 8.0 0.00 0.00 0.00
20260905091918 66 236 9.0 9.0 0.00 0.00 0.00
20260905091417 66 280 9.0 10.0 0.00 0.00 0.00
20260905090918 67 267 8.0 5.0 0.00 0.00 0.00
20260905085920 69 270 7.0 5.0 0.00 0.00 0.00
20260905085422 69 314 5.0 6.0 0.00 0.00 0.00
20260905084422 68 239 5.0 7.0 0.00 0.00 0.00
20260905083923 68 179 7.0 8.0 0.00 0.00 0.00
20260905082925 68 215 7.0 6.0 0.00 0.00 0.00
20260905082424 67 229 5.0 5.0 0.00 0.00 0.00
20260905081925 67 266 5.0 5.0 0.00 0.00 0.00
20260905081426 67 186 7.0 7.0 0.00 0.00 0.00
20260905080927 66 208 7.0 7.0 0.00 0.00 0.00
20260905080429 66 212 5.0 4.0 0.00 0.00 0.00
20260905075926 66 158 4.0 5.0 0.00 0.00 0.00
20260905075427 65 214 4.0 3.0 0.00 0.00 0.00
20260905074929 64 221 4.0 2.0 0.00 0.00 0.00
20260905074430 64 246 4.0 5.0 0.00 0.00 0.00
20260905073931 64 188 4.0 6.0 0.00 0.00 0.00
20260905073429 64 218 5.0 2.0 0.00 0.00 0.00
20260905072930 64 212 5.0 4.0 0.00 0.00 0.00
20260905072431 63 228 6.0 4.0 0.00 0.00 0.00
20260905070932 62 200 5.0 4.0 0.00 0.00 0.00
20260905070434 62 245 3.0 5.0 0.00 0.00 0.00
20260905065935 62 248 5.0 3.0 0.00 0.00 0.00
20260905065436 62 249 4.0 5.0 0.00 0.00 0.00
20260905064435 63 228 2.0 2.0 0.00 0.00 0.00
20260905063936 62 198 3.0 1.0 0.00 0.00 0.00
20260905063438 62 165 3.0 1.0 0.00 0.00 0.00
20260905062939 61 219 3.0 0.0 0.00 0.00 0.00
20260905062440 60 239 1.0 3.0 0.00 0.00 0.00
20260905061938 60 141 2.0 0.0 0.00 0.00 0.00
20260905061439 59 214 0.0 0.0 0.00 0.00 0.00
20260905060940 60 194 0.0 0.0 0.00 0.00 0.00
20260905060441 59 169 3.0 1.0 0.00 0.00 0.00
20260905055943 59 180 3.0 5.0 0.00 0.00 0.00
20260905055440 60 201 3.0 4.0 0.00 0.00 0.00
20260905054941 59 184 5.0 5.0 0.00 0.00 0.00
20260905054443 59 167 3.0 1.0 0.00 0.00 0.00
20260905053944 59 203 4.0 4.0 0.00 0.00 0.00
20260905053445 59 190 3.0 3.0 0.00 0.00 0.00
20260905052943 59 179 3.0 3.0 0.00 0.00 0.00
20260905052444 58 186 3.0 4.0 0.00 0.00 0.00
20260905051946 58 153 3.0 2.0 0.00 0.00 0.00
20260905051447 57 187 3.0 2.0 0.00 0.00 0.00
20260905050948 57 195 2.0 2.0 0.00 0.00 0.00
20260905050447 57 187 3.0 3.0 0.00 0.00 0.00
20260905045948 58 179 4.0 3.0 0.00 0.00 0.00
20260905045449 58 205 4.0 3.0 0.00 0.00 0.00
20260905044452 58 215 2.0 5.0 0.00 0.00 0.00
20260905043950 58 181 4.0 3.0 0.00 0.00 0.00
20260905043451 58 198 4.0 3.0 0.00 0.00 0.00
20260905042952 58 188 4.0 4.0 0.00 0.00 0.00
20260905042454 57 190 2.0 5.0 0.00 0.00 0.00
20260905041955 58 184 4.0 4.0 0.00 0.00 0.00
20260905041453 57 186 3.0 2.0 0.00 0.00 0.00
20260905040455 58 176 3.0 2.0 0.00 0.00 0.00
20260905035458 57 197 4.0 5.0 0.00 0.00 0.00
20260905034956 58 169 3.0 3.0 0.00 0.00 0.00
20260905034458 57 181 4.0 4.0 0.00 0.00 0.00
20260905033959 57 190 4.0 5.0 0.00 0.00 0.00
20260905033500 57 215 4.0 4.0 0.00 0.00 0.00
20260905032459 58 184 6.0 4.0 0.00 0.00 0.00
20260905032000 58 183 4.0 5.0 0.00 0.00 0.00
20260905030505 58 198 5.0 6.0 0.00 0.00 0.00
20260905025502 58 194 3.0 5.0 0.00 0.00 0.00
20260905025004 58 200 3.0 4.0 0.00 0.00 0.00
20260905024505 57 208 3.0 3.0 0.00 0.00 0.00
20260905023006 58 166 4.0 3.0 0.00 0.00 0.00
20260905022508 58 191 1.0 3.0 0.00 0.00 0.00
20260905021510 58 210 3.0 2.0 0.00 0.00 0.00
20260905021008 58 197 4.0 5.0 0.00 0.00 0.00
20260905020509 58 187 4.0 3.0 0.00 0.00 0.00
20260905020011 58 176 3.0 4.0 0.00 0.00 0.00
20260905014508 57 191 4.0 3.0 0.00 0.00 0.00
20260905013511 57 229 1.0 1.0 0.00 0.00 0.00
20260905012011 57 212 4.0 4.0 0.00 0.00 0.00
20260905011512 57 224 2.0 1.0 0.00 0.00 0.00
20260905010514 57 194 0.0 1.0 0.00 0.00 0.00
20260905004517 57 293 3.0 3.0 0.00 0.00 0.00
20260905004018 57 238 6.0 4.0 0.00 0.00 0.00
20260905003520 57 253 6.0 3.0 0.00 0.00 0.00
20260905002518 57 262 6.0 5.0 0.00 0.00 0.00
20260905001521 58 262 2.0 1.0 0.00 0.00 0.00
20260905001022 57 243 4.0 2.0 0.00 0.00 0.00
20260904235524 61 269 6.0 7.0 0.00 0.00 0.00
20260904235025 61 315 6.0 5.0 0.00 0.00 0.00
20260904234024 62 316 10.0 8.0 0.00 0.00 0.00
20260904233523 62 305 13.0 12.0 0.00 0.00 0.00
20260904233024 65 297 8.0 10.0 0.00 0.00 0.00
20260904232526 66 308 10.0 9.0 0.00 0.00 0.00
20260904231524 66 300 15.0 15.0 0.00 0.00 0.00
20260904231025 64 300 16.0 13.0 0.00 0.00 0.00
20260904230028 64 283 17.0 11.0 0.00 0.00 0.00
20260904225529 66 280 21.0 21.0 0.00 0.00 0.00
20260904225027 66 312 19.0 14.0 0.00 0.00 0.00
20260904224528 66 308 19.0 19.0 0.00 0.00 0.00
20260904224029 68 315 17.0 14.0 0.00 0.00 0.00
20260904223530 68 311 16.0 12.0 0.00 0.00 0.00
20260904222529 69 314 18.0 16.0 0.00 0.00 0.00
20260904222030 69 309 21.0 20.0 0.00 0.00 0.00
20260904221532 69 329 13.0 12.0 0.00 0.00 0.00
20260904221033 74 302 13.0 9.0 0.00 0.00 0.00
20260904220534 74 269 10.0 15.0 0.00 0.00 0.00
20260904220033 74 250 11.0 11.0 0.00 0.00 0.00
20260904215534 74 273 8.0 7.0 0.00 0.00 0.00
20260904215035 74 281 7.0 6.0 0.00 0.00 0.00
20260904214536 74 253 6.0 6.0 0.00 0.00 0.00
20260904213536 73 225 5.0 2.0 0.00 0.00 0.00
20260904213037 74 297 5.0 4.0 0.00 0.00 0.00
20260904212040 74 270 6.0 5.0 0.00 0.00 0.00
20260904211541 74 256 4.0 2.0 0.00 0.00 0.00
20260904210042 74 231 3.0 3.0 0.00 0.00 0.00
20260904205543 75 219 4.0 7.0 0.00 0.00 0.00
20260904205044 74 208 5.0 5.0 0.00 0.00 0.00
20260904204542 75 239 5.0 4.0 0.00 0.00 0.00
20260904204043 74 218 4.0 4.0 0.00 0.00 0.00
20260904203544 75 198 4.0 3.0 0.00 0.00 0.00
20260904203045 75 229 4.0 8.0 0.00 0.00 0.00
20260904202044 75 212 3.0 6.0 0.00 0.00 0.00
20260904201545 76 211 3.0 4.0 0.00 0.00 0.00
20260904201047 76 219 3.0 9.0 0.00 0.00 0.00
20260904194550 77 245 8.0 6.0 0.00 0.00 0.00
20260904194051 77 249 6.0 12.0 0.00 0.00 0.00
20260904192551 77 240 7.0 7.0 0.00 0.00 0.00
20260904191551 77 222 8.0 9.0 0.00 0.00 0.00
20260904191052 77 228 5.0 6.0 0.00 0.00 0.00
20260904190052 77 159 6.0 12.0 0.00 0.00 0.00
20260904185553 77 235 4.0 8.0 0.00 0.00 0.00
20260904185054 77 242 5.0 10.0 0.00 0.00 0.00
20260904184555 78 238 7.0 6.0 0.00 0.00 0.00
20260904184053 78 238 5.0 10.0 0.00 0.00 0.00
20260904183055 78 211 7.0 8.0 0.00 0.00 0.00
20260904182556 78 214 7.0 8.0 0.00 0.00 0.00
20260904182058 79 208 5.0 7.0 0.00 0.00 0.00
20260904181555 78 180 6.0 8.0 0.00 0.00 0.00
20260904181056 79 232 9.0 8.0 0.00 0.00 0.00
20260904180557 79 242 11.0 9.0 0.00 0.00 0.00
20260904180058 80 243 10.0 8.0 0.00 0.00 0.00
20260904175559 79 233 7.0 7.0 0.00 0.00 0.00
20260904175057 80 245 5.0 9.0 0.00 0.00 0.00
20260904174558 80 210 6.0 3.0 0.00 0.00 0.00
20260904173600 80 271 7.0 6.0 0.00 0.00 0.00
20260904173101 80 229 8.0 6.0 0.00 0.00 0.00
20260904172559 83 232 9.0 6.0 0.00 0.00 0.00
20260904172100 83 233 7.0 6.0 0.00 0.00 0.00
20260904171601 83 205 6.0 5.0 0.00 0.00 0.00
20260904171102 82 200 12.0 8.0 0.00 0.00 0.00
20260904170100 83 195 9.0 13.0 0.00 0.00 0.00
20260904165102 86 231 12.0 6.0 0.00 0.00 0.00
20260904163601 83 255 10.0 8.0 0.00 0.00 0.00
20260904163102 84 248 8.0 7.0 0.00 0.00 0.00
20260904162602 83 281 11.0 12.0 0.00 0.00 0.00
20260904162103 84 236 7.0 6.0 0.00 0.00 0.00
20260904161604 84 207 12.0 10.0 0.00 0.00 0.00
20260904155603 84 197 12.0 13.0 0.00 0.00 0.00
20260904154601 84 208 13.0 13.0 0.00 0.00 0.00
20260904154102 85 236 13.0 6.0 0.00 0.00 0.00
20260904153103 85 226 11.0 9.0 0.00 0.00 0.00
20260904152603 86 273 5.0 7.0 0.00 0.00 0.00
20260904151602 85 257 13.0 11.0 0.00 0.00 0.00
20260904145601 86 166 10.0 10.0 0.00 0.00 0.00
20260904144603 85 215 12.0 18.0 0.00 0.00 0.00
20260904144104 86 201 11.0 11.0 0.00 0.00 0.00
20260904143604 86 215 11.0 17.0 0.00 0.00 0.00
20260904143102 86 224 9.0 8.0 0.00 0.00 0.00
20260904142602 85 239 7.0 6.0 0.00 0.00 0.00
20260904141604 86 208 11.0 10.0 0.00 0.00 0.00
20260904141105 84 219 12.0 10.0 0.00 0.00 0.00
20260904135605 84 158 12.0 2.0 0.00 0.00 0.00
20260904135106 84 243 8.0 9.0 0.00 0.00 0.00
20260904134607 84 183 11.0 5.0 0.00 0.00 0.00
20260904134105 84 225 10.0 9.0 0.00 0.00 0.00
20260904133606 84 221 11.0 7.0 0.00 0.00 0.00
20260904133107 84 218 9.0 15.0 0.00 0.00 0.00
20260904132608 84 203 9.0 13.0 0.00 0.00 0.00
20260904132109 84 311 8.0 8.0 0.00 0.00 0.00
20260904131606 83 226 13.0 12.0 0.00 0.00 0.00
20260904131107 84 197 12.0 12.0 0.00 0.00 0.00
20260904130109 85 232 8.0 11.0 0.00 0.00 0.00
20260904125108 83 149 9.0 12.0 0.00 0.00 0.00
20260904123612 84 229 11.0 9.0 0.00 0.00 0.00
20260904123113 83 215 11.0 16.0 0.00 0.00 0.00
20260904122112 84 183 9.0 10.0 0.00 0.00 0.00
20260904121114 83 203 11.0 12.0 0.00 0.00 0.00
20260904120615 83 238 12.0 19.0 0.00 0.00 0.00
20260904120112 83 190 11.0 6.0 0.00 0.00 0.00
20260904115614 83 219 12.0 9.0 0.00 0.00 0.00
20260904115115 83 214 11.0 9.0 0.00 0.00 0.00
20260904114616 82 235 10.0 14.0 0.00 0.00 0.00
20260904114117 82 141 11.0 9.0 0.00 0.00 0.00